Regional Weather Roundup
Issued by NWS

Home | Current Version | Previous Version | Graphics & Text | Print | Product List | Glossary On
Versions: 1 2 3 4 5 6 7 8 9 10 11 12 13 14 15 16 17 18 19 20 21 22 23 24 25 26 27 28 29 30 31 32 33 34 35 36 37 38 39 40 41 42 43 44 45 46 47 48 49 50
000
ASUS43 KTOP 230359
RWRKS

WEATHER ROUNDUP FOR KANSAS
NATIONAL WEATHER SERVICE GOODLAND KS
1100 PM CDT FRI MAY 22 2015

NOTE:  "FAIR" INDICATES FEW OR NO CLOUDS BELOW 12,000 FEET WITH NO
SIGNIFICANT WEATHER AND/OR OBSTRUCTIONS TO VISIBILITY.

KSZ001>006-013>018-027>032-041>047-230500-
NORTHWEST KANSAS

CITY           SKY/WX    TMP DP  RH WIND       PRES   REMARKS
GOODLAND       FOG       52  52 100 SE21G26   30.03R VSB 1/2
HAYS           CLOUDY    55  48  76 SE14      30.12R
HILL CITY      CLOUDY    55  53  93 SE13      30.11R
RUSSELL        CLOUDY    55  55 100 SE13      30.12R
$$

KSZ061>065-074>080-084>089-230500-
SOUTHWEST KANSAS

CITY           SKY/WX    TMP DP  RH WIND       PRES   REMARKS
DODGE CITY     CLOUDY    56  53  90 SE16G24   30.10R FOG
ELKHART          N/A     57  51  80 SE22        N/A
GARDEN CITY    CLOUDY    56  54  93 SE15      30.06R
GREAT BEND     CLOUDY    55  52  88 SE17      30.12S
LIBERAL        PTCLDY    57  52  82 SE17      30.06R
$$

KSZ066>073-081>083-090>101-230500-
SOUTHEAST KANSAS

CITY           SKY/WX    TMP DP  RH WIND       PRES   REMARKS
CHANUTE        CLOUDY    60  52  74 E7        30.19R
COFFEYVILLE    CLOUDY    61  55  81 S5        30.19R
HUTCHINSON     CLOUDY    56  53  90 SE10      30.16R FOG
NEWTON         CLOUDY    54  46  76 SE9       30.19R
PARSONS        CLOUDY    61  55  81 CALM      30.20R
WICHITA INTL   CLOUDY    55  52  89 SE13      30.16R
WICHITA JABRA  CLOUDY    54  52  93 SE6       30.16S
WINFIELD       CLOUDY    55  55 100 SE6       30.18R FOG
$$

KSZ007>012-019>026-033>040-048>060-102>105-230500-
NORTHEAST KANSAS

CITY           SKY/WX    TMP DP  RH WIND       PRES   REMARKS
CONCORDIA      CLOUDY    57  49  74 SE10      30.16R
EMPORIA        CLOUDY    57  51  80 SE5       30.19R
LAWRENCE       CLOUDY    60  52  74 SE6       30.21R
MANHATTAN      CLOUDY    59  49  69 E5        30.18S
OLATHE IND     CLOUDY    60  52  74 SE6       30.22R
OLATHE EXE     CLOUDY    60  52  74 SE7       30.21R
SALINA         CLOUDY    59  50  72 SE14      30.17R
TOPEKA BILLARD CLOUDY    61  51  70 E7        30.20R
TOPEKA FORBES  CLOUDY    60  51  72 SE7       30.20R
$$


USA.gov is the U.S. government's official web portal to all federal, state and local government web resources and services.